VYA605 BGGH-EFKT

Flight info

Callsign VYA605
Flight time N/A
Altitude 31000
Route PEMEP DCT EXUTI
Aircraft CL60/M-SADE3FGHIJ3J4J7P2RWXY/HB1D1

Departure

Time N/A
Airport Nuuk International Airport (BGGH)

Arrival

Time 2026-04-26 17:11
Airport Kittilä International Airport (EFKT)
Time Latitude Longitude Altitude Speed Heading
2026-04-26 16:39 69.94281 22.49978 29806 ft 321 kts 276°
2026-04-26 16:39 69.94463 22.43538 29806 ft 319 kts 280°
2026-04-26 16:40 69.94924 22.37334 29851 ft 312 kts 298°
2026-04-26 16:40 69.96209 22.32553 30024 ft 303 kts 326°
2026-04-26 16:40 69.98143 22.30355 30216 ft 304 kts 354°
2026-04-26 16:40 70.00251 22.31368 30409 ft 313 kts 23°
2026-04-26 16:41 70.01931 22.35393 30602 ft 325 kts 51°
2026-04-26 16:41 70.02863 22.41534 30762 ft 337 kts 71°
2026-04-26 16:41 70.03207 22.48460 30804 ft 348 kts 85°
2026-04-26 16:41 70.02947 22.55550 30826 ft 361 kts 101°
2026-04-26 16:42 70.02014 22.62584 30848 ft 385 kts 117°
2026-04-26 16:42 70.00359 22.68888 30851 ft 407 kts 136°
2026-04-26 16:42 69.97999 22.73495 30863 ft 425 kts 157°
2026-04-26 16:42 69.95141 22.76379 30824 ft 443 kts 163°
2026-04-26 16:43 69.92192 22.79119 30829 ft 458 kts 162°
2026-04-26 16:43 69.89144 22.81967 30848 ft 471 kts 162°
2026-04-26 16:43 69.83131 22.87565 30844 ft 486 kts 162°
2026-04-26 16:44 69.76662 22.93552 30844 ft 489 kts 162°
2026-04-26 16:44 69.70209 22.99489 30832 ft 489 kts 162°
2026-04-26 16:45 69.63761 23.05385 30826 ft 489 kts 162°
2026-04-26 16:45 69.57304 23.11253 30826 ft 489 kts 162°
2026-04-26 16:46 69.50853 23.17080 30815 ft 490 kts 162°
2026-04-26 16:46 69.44379 23.22891 30817 ft 490 kts 162°
2026-04-26 16:47 69.37869 23.28697 30823 ft 490 kts 162°
2026-04-26 16:47 69.31396 23.34435 30829 ft 490 kts 162°
2026-04-26 16:48 69.24915 23.40144 30832 ft 490 kts 162°
2026-04-26 16:48 69.18418 23.45832 30830 ft 490 kts 162°
2026-04-26 16:49 69.11935 23.51473 30834 ft 490 kts 162°
2026-04-26 16:49 69.05437 23.57092 30838 ft 491 kts 162°
2026-04-26 16:50 68.98938 23.62677 30838 ft 491 kts 162°
2026-04-26 16:50 68.92496 23.68179 30837 ft 491 kts 163°
2026-04-26 16:51 68.86132 23.73581 30843 ft 490 kts 163°
2026-04-26 16:51 68.79778 23.78943 30821 ft 490 kts 163°
2026-04-26 16:52 68.76548 23.81657 30467 ft 480 kts 163°
2026-04-26 16:52 68.74444 23.83419 30129 ft 475 kts 163°
2026-04-26 16:52 68.70271 23.86905 29382 ft 468 kts 163°
2026-04-26 16:52 68.67194 23.89468 28800 ft 463 kts 163°
2026-04-26 16:53 68.64138 23.92006 28201 ft 459 kts 163°
2026-04-26 16:53 68.61102 23.94520 27597 ft 454 kts 163°
2026-04-26 16:53 68.58137 23.96968 26997 ft 450 kts 163°
2026-04-26 16:53 68.55180 23.99404 26362 ft 445 kts 163°
2026-04-26 16:54 68.52222 24.01833 25692 ft 440 kts 163°
2026-04-26 16:54 68.49307 24.04221 25068 ft 434 kts 162°
2026-04-26 16:54 68.46455 24.06548 24474 ft 426 kts 162°
2026-04-26 16:54 68.43671 24.08814 23920 ft 418 kts 162°
2026-04-26 16:55 68.40910 24.11057 23358 ft 411 kts 162°
2026-04-26 16:55 68.38208 24.13245 22834 ft 404 kts 163°
2026-04-26 16:55 68.35535 24.15406 22285 ft 396 kts 163°
2026-04-26 16:55 68.32911 24.17522 21756 ft 389 kts 163°
2026-04-26 16:56 68.27839 24.21599 20752 ft 375 kts 163°
2026-04-26 16:56 68.25428 24.23531 20265 ft 369 kts 163°
2026-04-26 16:56 68.22989 24.25481 19787 ft 363 kts 163°
2026-04-26 16:57 68.20577 24.27406 19304 ft 357 kts 163°
2026-04-26 16:57 68.18207 24.29299 18828 ft 351 kts 163°
2026-04-26 16:57 68.13622 24.32953 17912 ft 341 kts 163°
2026-04-26 16:58 68.11360 24.34748 17464 ft 336 kts 163°
2026-04-26 16:58 68.09875 24.35862 17301 ft 329 kts 165°
2026-04-26 16:58 68.04730 24.39547 16261 ft 329 kts 164°
2026-04-26 16:59 68.02528 24.41125 15820 ft 327 kts 165°
2026-04-26 16:59 67.98175 24.44237 14970 ft 322 kts 164°
2026-04-26 17:00 67.93867 24.47304 14128 ft 318 kts 164°
2026-04-26 17:00 67.89643 24.50307 13299 ft 315 kts 164°
2026-04-26 17:00 67.87575 24.51772 12886 ft 313 kts 164°
2026-04-26 17:01 67.85470 24.53173 12472 ft 312 kts 166°
2026-04-26 17:01 67.83362 24.54536 12055 ft 311 kts 165°
2026-04-26 17:01 67.81263 24.55891 11643 ft 309 kts 165°
2026-04-26 17:01 67.79198 24.57221 11232 ft 307 kts 165°
2026-04-26 17:02 67.77126 24.58554 10846 ft 306 kts 165°
2026-04-26 17:02 67.75070 24.59873 10434 ft 306 kts 165°
2026-04-26 17:02 67.73020 24.61184 10031 ft 302 kts 165°
2026-04-26 17:02 67.71017 24.62465 9649 ft 304 kts 165°
2026-04-26 17:03 67.68969 24.63770 9250 ft 300 kts 165°
2026-04-26 17:03 67.66969 24.65041 8880 ft 299 kts 166°
2026-04-26 17:03 67.65408 24.66033 8550 ft 299 kts 166°
2026-04-26 17:03 67.63610 24.67174 8178 ft 296 kts 166°
2026-04-26 17:04 67.61734 24.68352 7740 ft 295 kts 166°
2026-04-26 17:04 67.59772 24.69562 7394 ft 289 kts 166°
2026-04-26 17:04 67.58378 24.70417 7092 ft 290 kts 166°
2026-04-26 17:04 67.56393 24.71633 6689 ft 288 kts 166°
2026-04-26 17:05 67.54480 24.72810 6332 ft 283 kts 165°
2026-04-26 17:05 67.52699 24.74741 5886 ft 272 kts 144°
2026-04-26 17:05 67.51385 24.78074 5253 ft 265 kts 120°
2026-04-26 17:05 67.50665 24.82328 4640 ft 256 kts 98°
2026-04-26 17:06 67.50555 24.86834 4122 ft 248 kts 79°
2026-04-26 17:06 67.51080 24.90952 3814 ft 232 kts 52°
2026-04-26 17:06 67.52238 24.93748 3773 ft 228 kts 25°
2026-04-26 17:06 67.53737 24.94852 3784 ft 226 kts
2026-04-26 17:07 67.55286 24.94339 3780 ft 224 kts 347°
2026-04-26 17:07 67.56727 24.93336 3579 ft 211 kts 346°
2026-04-26 17:07 67.58049 24.92454 3194 ft 179 kts 347°
2026-04-26 17:07 67.59136 24.91755 3032 ft 156 kts 347°
2026-04-26 17:08 67.60129 24.91117 2798 ft 145 kts 346°
2026-04-26 17:08 67.61106 24.90492 2539 ft 137 kts 346°
2026-04-26 17:08 67.61954 24.89951 2349 ft 119 kts 346°
2026-04-26 17:08 67.62736 24.89449 2142 ft 112 kts 345°
2026-04-26 17:09 67.63483 24.88968 1967 ft 109 kts 345°
2026-04-26 17:09 67.63974 24.88651 1861 ft 108 kts 345°
2026-04-26 17:09 67.64926 24.88055 1630 ft 109 kts 346°
2026-04-26 17:09 67.65616 24.87634 1470 ft 109 kts 343°
2026-04-26 17:10 67.66352 24.87127 1303 ft 111 kts 345°
2026-04-26 17:10 67.67097 24.86621 1137 ft 112 kts 345°
2026-04-26 17:10 67.67841 24.86137 949 ft 112 kts 346°
2026-04-26 17:10 67.68608 24.85648 766 ft 111 kts 346°
2026-04-26 17:11 67.69342 24.85174 640 ft 108 kts 346°
2026-04-26 17:11 67.69930 24.84793 634 ft 60 kts 346°
2026-04-26 17:11 67.70183 24.84630 634 ft 25 kts 347°
2026-04-26 17:11 67.70361 24.84514 635 ft 27 kts 346°
2026-04-26 17:12 67.70654 24.84356 636 ft 12 kts 10°
2026-04-26 17:12 67.70731 24.84507 635 ft 15 kts 71°
2026-04-26 17:13 67.70612 24.84807 634 ft 18 kts 168°
2026-04-26 17:13 67.70468 24.84893 634 ft 23 kts 166°
2026-04-26 17:13 67.70153 24.85096 633 ft 27 kts 167°
2026-04-26 17:14 67.69964 24.85222 633 ft 18 kts 167°
2026-04-26 17:14 67.69774 24.85359 633 ft 13 kts 163°
2026-04-26 17:14 67.69712 24.85402 633 ft 7 kts 149°
2026-04-26 17:15 67.69720 24.85597 633 ft 0 kts 76°